Home > Weather > Fort St. John > Past weeks

Flag for Canada Past Weather in Fort St. John, British Columbia, Canada — Yesterday and Last 2 Weeks

Now
72 °F

Scattered clouds.


Feels Like: 77 °F
Forecast: 54 / 74 °F
Wind: 9 mph from West

Location: Fort St John

Current Time: Jun 26, 2016 at 1:58:58 PM

Latest Report: Jun 26, 2016 at 1:00 PM


Visibility: 15 mi

Pressure: 30.15 "Hg (27.84 "Hg at 689m altitude)

Humidity: 53%

Dew Point: 54 °F

Location of Fort St. JohnLocation

Past Weather in Fort St. John — Graph

°F

Fort St. John Temperature Yesterday

Maximum temperature yesterday: 73 °F (at 2:00 PM)
Minimum temperature yesterday: 52 °F (at 3:00 AM)
Average temperature yesterday: 61 °F

High & Low Weather Summary for the Past Weeks

 TemperatureHumidityPressure
High77 °F (Jun 20, 4:00 PM)100% (Jun 12, 12:00 AM)30.18 "Hg (Jun 12, 12:00 AM)
Low41 °F (Jun 17, 4:00 AM)34% (Jun 13, 7:00 PM)29.40 "Hg (Jun 15, 1:00 PM)
Average57 °F74%29.87 "Hg
* Reported Jun 11 12:00 PM — Jun 26 12:00 PM, Fort St. John, Weather by CustomWeather, © 2016

Note: Actual official high and low records may vary slightly from our data, if they occured in-between our weather recording intervals... More about our weather records

Advertising

Fort St. John Weather History for the Previous 24 Hours

Scroll right to see more
 ConditionsComfort  
Time TempWeatherWind HumidityBarometerVisibility
12:00 PM
Sun, Jun 26
70 °FBroken clouds.6 mph60%30.16 "Hg15 mi
11:00 AM68 °FScattered clouds.12 mph56%30.15 "Hg15 mi
10:00 AM66 °FScattered clouds.9 mph52%30.14 "Hg15 mi
9:00 AM63 °FScattered clouds.13 mph59%30.14 "Hg15 mi
8:00 AM61 °FScattered clouds.9 mph63%30.12 "Hg15 mi
7:00 AM57 °FScattered clouds.9 mph63%30.11 "Hg15 mi
6:00 AM54 °FScattered clouds.10 mph67%30.10 "Hg15 mi
5:00 AM54 °FPassing clouds.13 mph67%30.09 "Hg15 mi
4:00 AM54 °FPassing clouds.12 mph67%30.08 "Hg15 mi
3:00 AM54 °FPassing clouds.12 mph77%30.06 "Hg15 mi
2:00 AM54 °FPassing clouds.9 mph82%30.05 "Hg15 mi
1:00 AM54 °FPassing clouds.6 mph94%30.05 "Hg15 mi
12:00 AM52 °FPartly cloudy.7 mph94%30.05 "Hg15 mi
11:00 PM
Sat, Jun 25
54 °FPartly cloudy.3 mph94%30.05 "Hg15 mi
10:00 PM57 °FCloudy.2 mph88%30.05 "Hg15 mi
9:00 PM57 °FMostly cloudy.6 mph94%30.04 "Hg15 mi
8:00 PM59 °FOvercast.6 mph88%30.04 "Hg15 mi
7:00 PM59 °FPartly sunny.10 mph88%30.04 "Hg15 mi
6:00 PM59 °FMore clouds than sun.7 mph88%30.04 "Hg15 mi
5:00 PM59 °FSprinkles. More clouds than sun.5 mph82%30.03 "Hg15 mi
4:00 PM61 °FBroken clouds.10 mph68%30.01 "Hg15 mi
3:00 PM72 °FScattered clouds.17 mph57%29.95 "Hg15 mi
2:00 PM73 °FBroken clouds.15 mph57%29.94 "Hg15 mi
1:00 PM72 °FBroken clouds.15 mph57%29.94 "Hg15 mi
Weather by CustomWeather, © 2016

See weather overviewHow to use our weather pages